Location: *
(58.4167°N, 22.5000°E)
Time: 15:01:32
(UTC+00:00)

Resurs 01 Rocket - Pass Details

Date: 22 September 2019
Orbit: 635 x 644 km, 98.0° (Epoch: 17 October)

Event Time Altitude Azimuth Distance (km) Brightness Sun altitude
Exits shadow 17:25:14 - 122° (ESE) 2,157 3.7 -7.9°
Reaches altitude 10° 17:25:33 10° 121° (ESE) 2,041 3.6 -8.0°
Maximum altitude 17:29:29 32° 59° (ENE) 1,121 2.5 -8.5°
Drops below altitude 10° 17:33:26 10° 357° (N) 2,056 4.5 -9.0°
Sets 17:35:49 0° 347° (NNW) 2,971 5.5 -9.3°
